Regional Weather Roundup
Issued by NWS Raleigh/Durham, NC

Current Version | Previous Version | Text Only | Print | Product List | Glossary On
Versions: 1 2 3 4 5 6 7 8 9 10 11 12 13 14 15 16 17 18 19 20 21 22 23 24 25 26 27 28 29 30 31 32 33 34 35 36 37 38 39 40 41 42 43 44 45 46 47 48 49 50
000
ASUS42 KRAH 080310
RWRRAH
NORTH CAROLINA WEATHER ROUNDUP
NATIONAL WEATHER SERVICE RALEIGH NC
1000 PM EST SUN FEB 07 2016

NOTE: "FAIR" INDICATES FEW OR NO CLOUDS BELOW 12,000 FEET WITH NO
SIGNIFICANT WEATHER AND/OR OBSTRUCTIONS TO VISIBILITY.

NCZ001-053-055-056-065-067-080400-
WESTERN NORTH CAROLINA

CITY           SKY/WX    TMP DP  RH WIND       PRES   REMARKS
ASHEVILLE      CLEAR     35  20  54 CALM      29.91F
JEFFERSON      CLEAR     37  19  48 W16G22    29.85F WCI  27
MORGANTON      CLEAR     30  24  79 CALM      29.94F
HICKORY        CLEAR     41  21  44 W6        29.90F
RUTHERFORDTON  CLEAR     37  21  52 CALM      29.92F
MOUNT AIRY     CLOUDY    34  28  77 CALM      29.91S
BOONE          CLEAR     35  20  54 NW8       29.87F WCI  28
$$

NCZ021-022-025-041-071-084-088-080400-
CENTRAL NORTH CAROLINA

CITY           SKY/WX    TMP DP  RH WIND       PRES   REMARKS
CHARLOTTE      PTCLDY    34  25  69 CALM      29.92F
GREENSBORO     CLOUDY    38  22  52 N3        29.88S
WINSTON-SALEM  CLOUDY    39  22  50 N3        29.90F
RALEIGH-DURHAM CLOUDY    41  22  46 VRB7      29.86S
FORT BRAGG     MOCLDY    42  24  48 NW12      29.83S
FAYETTEVILLE   MOCLDY    42  25  50 NW12      29.83S
BURLINGTON     CLOUDY    39  23  52 NW6       29.87F WCI  35
LAURINBURG     CLOUDY    43  23  45 NW9       29.88R
$$

NCZ011-015-027-028-043-044-047-080-103-080400-
NORTHEASTERN NORTH CAROLINA

CITY           SKY/WX    TMP DP  RH WIND       PRES   REMARKS
ROCKY MT-WILSO CLOUDY    41  24  51 N14       29.80F
GREENVILLE     CLOUDY    37  32  81 N12G22    29.78R WCI  30
WASHINGTON     LGT RAIN  37  33  87 NW14G24   29.71S WCI  28
ELIZABETH CITY CLOUDY    40  36  86 N26G36    29.67F WCI  29
MANTEO         LGT RAIN  43  43  99 N29G43    29.57F
CAPE HATTERAS  LGT RAIN  45  43  93 N17G38    29.44S
$$

NCZ078-087-090-091-093-098-101-080400-
SOUTHEASTERN NORTH CAROLINA

CITY           SKY/WX    TMP DP  RH WIND       PRES   REMARKS
LUMBERTON      MOCLDY    42  27  55 NW14      29.85R
GOLDSBORO      CLOUDY    41  25  52 NW14G22   29.76F
KINSTON        MOCLDY    39  30  69 N13G24    29.75F WCI  32
KENANSVILLE      N/A     40  27  58 NW5G17    29.78S
NEW BERN       LGT RAIN  38  32  79 N18G30    29.68F WCI  28
CHERRY POINT   LGT RAIN  38  33  82 N28G38    29.64S WCI  26
BEAUFORT       FLURRIES  38  35  89 N36G48    29.58R WCI  25
JACKSONVILLE   LGT RAIN  38 N/A N/A NW23G30   29.71R WCI  27
WILMINGTON     CLOUDY    40  29  64 NW21G29   29.74S WCI  30
$$




USA.gov is the U.S. government's official web portal to all federal, state and local government web resources and services.